Taganrog Yuzhny Airport

Jump to: basic info | weather | comments

Related pages: nearby airports | nearby navaids | notams | map

Basic information (top)

Codes: TGK URRT
Location: lon 47.200001, lat 38.849998, elev 118 ft / 36 m msl
Status: medium_airport

Weather (top)

Current conditions for Rostov-na-Donu Airport 40nm (73km) E (rec'd 2014/10/22 09:00Z):

URRR 220900Z 25005G08MPS 7000 SCT011 OVC019 12/10 Q1010 22290047 NOSIG

Airport forecast for Rostov-na-Donu Airport 40nm (73km) E (rec'd 2014/10/22 09:28Z):

TAF URRR 220759Z 2209/2309 25006G11MPS 3000 BR BKN007 SCT020CB 
      TEMPO 2215/2306 VRB02MPS 2100 -SHRA 
      BECMG 2306/2308 06007G12MPS 530005

Latest comments (top)

dgs: gsdg [read]

More... (top)

See also NOTAMs and nearby airports and navaids, or visit the Taganrog Yuzhny Airport page at the main OurAirports website..